Regional Weather Roundup
Issued by NWS

Home | Current Version | Previous Version | Text Only | Print | Product List | Glossary On
Versions: 1 2 3 4 5 6 7 8 9 10 11 12 13 14 15 16 17 18 19 20 21 22 23 24 25 26 27 28 29 30 31 32 33 34 35 36 37 38 39 40 41 42 43 44 45 46 47 48 49 50
000
ASUS44 KLIX 122210
RWRLA
LOUISIANA WEATHER ROUNDUP
NATIONAL WEATHER SERVICE NEW ORLEANS LA
400 PM CST FRI FEB 12 2016

NOTE: "FAIR" INDICATES FEW OR NO CLOUDS BELOW 12,000 FEET WITH NO
      SIGNIFICANT WEATHER AND/OR OBSTRUCTIONS TO VISIBILITY.
      SKY/WX - SKY CONDITION AND SIGNIFICANT WEATHER.
      TMP - AIR TEMPERATURE.    DP   - DEWPOINT TEMPERATURE.
      RH  - RELATIVE HUMIDITY.  PRES - PRESSURE.
      HX  - HEAT INDEX.         WCI  - WIND CHILL INDEX.

*  THESE STATIONS ARE NOT NWS OR FAA STATIONS AND ARE NOT UNDER
   NWS QUALITY CONTROL.

LAZ040-048-061>063-065-066-069-122300-
SOUTHEAST LOUISIANA

CITY           SKY/WX    TMP DP  RH WIND       PRES   REMARKS
N.O. AUDUBON     N/A     73  54  52 MISG        N/A
N.O. INTL ARPT MOSUNNY   76  52  43 W14       30.17S
N.O. LAKEFRONT SUNNY     65  56  72 W5        30.18S
N.O. DOWNTOWN* NOT AVBL
RESERVE*       FAIR      76  51  41 W12G17    30.18R
SLIDELL        SUNNY     74  54  49 W8        30.16S
BATON ROUGE    PTSUNNY   75  53  46 W13       30.18S
BOOTHVILLE     SUNNY     69  58  67 W13       30.20R
BELLE CHASSE   MOSUNNY   74  54  49 W12       30.18R
BOGALUSA*        N/A     75  51  43 NW10      30.18R
GALLIANO*      CLEAR     74  58  55 SW15      30.19S
NEW ROADS*     FAIR      73  55  53 W3        30.18S
GONZALES*      FAIR      74  53  46 NW13G18   30.17S
HAMMOND*       SUNNY     77  48  36 W7        30.16S
HOUMA*         SUNNY     73  59  60 W10G18    30.19F
PORT FOURCHON* CLEAR     68  59  73 W12       30.22R

$$

LAZ041-044-053-054-122300-
SOUTHWEST LOUISIANA

CITY           SKY/WX    TMP DP  RH WIND       PRES   REMARKS
LAKE CHARLES   SUNNY     77  56  48 SW7       30.18S
LAFAYETTE      SUNNY     74  56  53 SW9       30.18F
PATTERSON      SUNNY     73  55  53 W13       30.20F
SALT POINT       N/A     63  58  83 VRB6      30.20S
NEW IBERIA     MOSUNNY   74  56  53 W9        30.19F
CHENAULT AIRPK SUNNY     77  54  44 VRB6      30.18S

$$

LAZ027-028-122300-
CENTRAL LOUISIANA

CITY           SKY/WX    TMP DP  RH WIND       PRES   REMARKS
FORT POLK      SUNNY     74  55  51 W6        30.18S
ALEXANDRIA INT SUNNY     73  53  49 W8        30.17S
ALEXANDRIA     SUNNY     77  46  33 VRB6      30.19R

$$

LAZ001-002-122300-
NORTHWEST LOUISIANA

CITY           SKY/WX    TMP DP  RH WIND       PRES   REMARKS
SHREVEPORT     SUNNY     71  36  27 NE6       30.23R
BARKSDALE AFB  SUNNY     70  36  29 NW5       30.23R HAZE
DTN SHREVEPORT SUNNY     69  35  28 NW6       30.24R

$$

LAZ014-016-122300-
NORTHEAST LOUISIANA

CITY           SKY/WX    TMP DP  RH WIND       PRES   REMARKS
MONROE         SUNNY     69  37  30 CALM      30.24R
TALLULAH       SUNNY     67  36  31 N7        30.23S

$$




USA.gov is the U.S. government's official web portal to all federal, state and local government web resources and services.